Regional Weather Roundup
Issued by NWS Sterling, VA

Home | Current Version | Previous Version | Graphics & Text | Print | Product List | Glossary On
Versions: 1 2 3 4 5 6 7 8 9 10 11 12 13 14 15 16 17 18 19 20 21 22 23 24 25 26 27 28 29 30 31 32 33 34 35 36 37 38 39 40 41 42 43 44 45 46 47 48 49 50
000
ASUS41 KLWX 220110
RWRLWX

REGIONAL WEATHER ROUNDUP
NATIONAL WEATHER SERVICE BALTIMORE MD/WASHINGTON DC
800 PM EST SUN DEC 21 2014

Note: "FAIR" indicates few or no clouds below 12,000 feet
with no significant weather and/or obstructions to visibility.
 TC=TEMPERATURE CELSIUS

 * =Non NWS site. Station does not report precipitation (e.g. rain,
    snow, etc.), thunder, or fog.

DCZ001-MDZ009-015-VAZ040>042-051-053>054-220200-
WASHINGTON METRO

CITY           SKY/WX    TMP DP  RH WIND       PRES   REMARKS
WASHINGTON NAT PTCLDY    38  27  64 CALM      30.33R
DULLES         PTCLDY    29  23  78 CALM      30.31S
ANDREWS AFB    PTCLDY    30  23  77 CALM      30.32R
FT BELVOIR     CLEAR     29  24  81 SE1       30.34R
QUANTICO       CLEAR     32  26  78 NW3       30.35R
COLLEGE PARK*  CLEAR     30  27  86 CALM      30.33S
LEESBURG*      CLEAR     30  27  86 MISG      30.33R
GAITHERSBURG*  FAIR      30  21  69 CALM      30.35R

$$

MDZ006>007-011-014-220200-
BALTIMORE METRO

CITY           SKY/WX    TMP DP  RH WIND       PRES   REMARKS
BWI AIRPORT    PTCLDY    33  24  69 E7        30.33F
MD SCIENCE CTR   N/A     35  23  61 MISG      30.32F
MARTIN STATE   CLEAR     34  27  75 CALM      30.36F
ANNAPOLIS      CLEAR     36  26  67 NE7       30.34S
FORT MEADE*    PTCLDY    28  23  80 E3        30.35R

$$

MDZ012-015-019>023-220200-
MARYLAND EASTERN SHORE

CITY           SKY/WX    TMP DP  RH WIND       PRES   REMARKS
OCEAN CITY     CLEAR     27  25  92 CALM      30.33S FOG
SALISBURY      CLEAR     30  24  78 CALM      30.33S
BAY BRIDGE AP*   N/A     34  25  69 NE5       30.35R
CAMBRIDGE*     CLEAR     32  28  86 CALM      30.33S

$$

MDZ017>025-220200-
SOUTHERN MARYLAND

CITY           SKY/WX    TMP DP  RH WIND       PRES   REMARKS
PATUXENT RIVER CLEAR     27  23  85 CALM      30.34R
ST INIGOES     CLEAR     29  23  78 N3        30.33R
LEONARDTOWN*   CLEAR     30  27  86 CALM      30.35R

$$

MDZ003>005-220200-
NORTH CENTRAL MARYLAND

CITY           SKY/WX    TMP DP  RH WIND       PRES   REMARKS
FREDERICK*     FAIR      30  21  69 CALM      30.37R
HAGERSTOWN APT PTCLDY    31  21  66 E7        30.30R
WESTMINSTER*   FAIR      28  21  74 NE3       30.30S

$$

MDZ501>502-220200-
WESTERN MARYLAND

CITY           SKY/WX    TMP DP  RH WIND       PRES   REMARKS
OAKLAND*       PTCLDY    27 N/A N/A SE15G21   30.13F WCI  15
CUMBERLAND*    PTCLDY    34  25  69 CALM      30.31S

$$

VAZ025>031-220200-
SHENANDOAH VALLEY

CITY           SKY/WX    TMP DP  RH WIND       PRES   REMARKS
WINCHESTER*    CLEAR     32  21  64 CALM      30.28S
FRONT ROYAL*   FAIR      32  27  80 CALM      30.27S
LURAY*         FAIR      32  28  86 NE3       30.26S
NEW MARKET*    FAIR      32  25  74 N5        30.25S
STAUNTON*      CLEAR     29  24  82 CALM      30.26R
WAYNESBORO*    FAIR      34  26  72 SE5       30.24R

$$

WVZ021-048>050-054>055-220200-
EASTERN WEST VIRGINIA PANHANDLE

CITY           SKY/WX    TMP DP  RH WIND       PRES   REMARKS
MARTINSBURG    PTCLDY    30  20  66 CALM      30.30R
PETERSBURG*    CLEAR     29  25  84 W3        30.25F

$$

VAZ036>039-050-220200-
CENTRAL FOOTHILLS

CITY           SKY/WX    TMP DP  RH WIND       PRES   REMARKS
CHARLOTTESVILL CLEAR     33  26  75 N3        30.28S
CULPEPER*      CLEAR     28  25  86 CALM      30.31S
ORANGE*        CLEAR     28  27  93 CALM      30.31F
GORDONSVILLE*  FAIR      28  24  87 CALM      30.29S
WARRENTON*     FAIR      27  27 100 CALM      30.31R

$$

VAZ055>057-220200-
NORTH AND CENTRAL PIEDMONT

CITY           SKY/WX    TMP DP  RH WIND       PRES   REMARKS
FREDERICKSBRG* CLEAR     32  27  81 CALM      30.32R
STAFFORD*      CLEAR     28  23  79 CALM      30.36S

$$

NCZ024-NYZ072-PAZ021-071-VAZ022-071-220200-
OTHER REGIONAL OBSERVATIONS

CITY           SKY/WX    TMP DP  RH WIND       PRES   REMARKS
PHILADELPHIA   CLEAR     34  22  61 VRB3      30.36R
PITTSBURGH     PTCLDY    28  22  78 E6        30.22S
ROANOKE        CLOUDY    40  31  70 SE7       30.25S
RICHMOND       PTCLDY    37  26  64 E6        30.30S
RALEIGH        CLOUDY    45  33  63 E8        30.25S

$$

ANZ530>537-220200-
MARINE OBSERVATIONS

STATION/POSITION TIME  TEMP    WIND        PRES
                       AIR SEA DIR/SP/G
                 (UTC) (F)     (DEG/KT/KT) (MB)
THOMAS PT LIGHT  0100   36 41   50/ 13/ 14 1028.2F
BALT KEY BRIDGE  0100   35      30/  8/  9 1027.2R
COVE POINT       0100   37      70/  5/  6 1026.8R
LEWISETTA        0100   39 41   70/  8/  9 1026.7F
SOLOMONS ISLAND  0100      43                N/A

$$




USA.gov is the U.S. government's official web portal to all federal, state and local government web resources and services.